Weather History for Pagosa Springs, CO

Change the Weather History Date:

Tuesday, October 9, 2012

  Actual Average (KDRO) Record (KDRO)
Temperature  
Mean Temperature 48 °F 50 °F  
Max Temperature 67 °F 66 °F 82 °F (1980)
Min Temperature 29 °F 33 °F 17 °F (1982)
Degree Days  
Heating Degree Days 17 15  
Month to date heating degree days 124  
Since 1 July heating degree days 348  
Cooling Degree Days 0 0  
Month to date cooling degree days 0  
Year to date cooling degree days 243  
Moisture  
Dew Point 15 °F    
Average Humidity 29    
Maximum Humidity 54    
Minimum Humidity 12    
Precipitation  
Precipitation 0.00 in 0.05 in 0.62 in (2014)
Month to date precipitation 0.46  
Year to date precipitation 12.34  
Sea Level Pressure  
Sea Level Pressure 30.19 in    
Wind  
Wind Speed 3 mph (SSW)    
Max Wind Speed 17 mph    
Max Gust Speed 25 mph    
Visibility 10 miles    
Events      
T = Trace of Precipitation, MM = Missing Value Source: NWS Daily Summary

Daily Weather History Graph

Daily Weather History Graph

Search for Another Location

Airport:

Trip Planner

Search our weather history database for the weather conditions in past years. The results will help you decide how hot, cold, wet, or windy it might be!

Date:

Astronomy

Oct. 09, 2012 Rise Set
Actual Time 7:11 AM MDT 6:38 PM MDT
Civil Twilight 6:45 AM MDT 7:04 PM MDT
Nautical Twilight 6:14 AM MDT 7:35 PM MDT
Astronomical Twilight 5:44 AM MDT 8:05 PM MDT
Moon 12:58 AM MDT (10/9) 3:01 PM MDT (10/9)
Length of Visible Light 12h 19m
Length of Day
11h 27m
Last Quarter, 36% of the Moon is Illuminated
Oct 9
Last Quarter
Oct 15
New
Oct 21
First Quarter
Oct 29
Full
Nov 6
Last Quarter

Hourly Weather History & Observations

Time (MDT) Temp. Windchill Dew Point Humidity Pressure Visibility Wind Dir Wind Speed Gust Speed Precip Events Conditions
12:15 AM 37.9 °F - 13.5 °F 37% 30.17 in 10.0 mi Calm Calm - N/A   Clear
12:55 AM 34.3 °F - 14.0 °F 43% 30.17 in 10.0 mi Calm Calm - N/A   Clear
1:15 AM 35.2 °F - 12.7 °F 40% 30.17 in 10.0 mi Calm Calm - N/A   Clear
2:15 AM 32.0 °F - 13.1 °F 46% 30.17 in 10.0 mi Calm Calm - N/A   Clear
2:35 AM 33.6 °F - 12.7 °F 42% 30.17 in 10.0 mi Calm Calm - N/A   Clear
2:55 AM 34.7 °F - 12.9 °F 41% 30.17 in 10.0 mi Calm Calm - N/A   Clear
3:15 AM 33.4 °F - 12.7 °F 42% 30.17 in 10.0 mi Calm Calm - N/A   Clear
3:35 AM 32.0 °F - 12.2 °F 44% 30.17 in 10.0 mi Calm Calm - N/A   Clear
3:55 AM 32.7 °F - 12.6 °F 43% 30.17 in 10.0 mi Calm Calm - N/A   Clear
4:15 AM 31.6 °F - 13.3 °F 47% 30.17 in 10.0 mi Calm Calm - N/A   Clear
4:35 AM 29.7 °F - 14.4 °F 53% 30.17 in 10.0 mi Calm Calm - N/A   Clear
4:55 AM 32.2 °F - 13.5 °F 46% 30.17 in 10.0 mi Calm Calm - N/A   Clear
5:15 AM 32.0 °F - 13.8 °F 47% 30.18 in 10.0 mi Calm Calm - N/A   Clear
5:35 AM 30.4 °F - 14.0 °F 51% 30.19 in 10.0 mi Calm Calm - N/A   Clear
6:15 AM 31.8 °F 28.5 °F 13.3 °F 46% 30.19 in 10.0 mi NE 3.5 mph - N/A   Clear
6:35 AM 31.5 °F - 13.5 °F 47% 30.19 in 10.0 mi Calm Calm - N/A   Clear
6:55 AM 29.8 °F - 14.5 °F 53% 30.19 in 10.0 mi Calm Calm - N/A   Clear
7:15 AM 30.0 °F - 14.7 °F 53% 30.20 in 10.0 mi Calm Calm - N/A   Clear
7:35 AM 29.7 °F - 14.9 °F 54% 30.20 in 10.0 mi Calm Calm - N/A   Clear
7:55 AM 31.5 °F - 16.2 °F 53% 30.20 in 10.0 mi Calm Calm - N/A   Clear
8:15 AM 35.4 °F - 16.5 °F 46% 30.20 in 10.0 mi Calm Calm - N/A   Clear
8:35 AM 40.1 °F - 14.0 °F 35% 30.21 in 10.0 mi Calm Calm - N/A   Clear
8:55 AM 43.7 °F - 14.2 °F 30% 30.21 in 10.0 mi Calm Calm - N/A   Clear
9:15 AM 46.2 °F 45.0 °F 15.4 °F 29% 30.22 in 10.0 mi ENE 3.5 mph - N/A   Clear
9:35 AM 48.2 °F - 14.9 °F 26% 30.22 in 10.0 mi Calm Calm - N/A   Clear
9:55 AM 50.0 °F - 14.7 °F 25% 30.21 in 10.0 mi Calm Calm - N/A   Clear
10:15 AM 53.1 °F - 15.4 °F 23% 30.21 in 10.0 mi Calm Calm - N/A   Clear
10:35 AM 54.5 °F - 15.4 °F 21% 30.21 in 10.0 mi South 4.6 mph - N/A   Clear
10:55 AM 56.1 °F - 16.0 °F 21% 30.21 in 10.0 mi South 5.8 mph - N/A   Clear
11:15 AM 56.7 °F - 16.2 °F 20% 30.20 in 10.0 mi South 6.9 mph - N/A   Clear
11:35 AM 59.4 °F - 16.7 °F 19% 30.19 in 10.0 mi WSW 10.4 mph - N/A   Clear
11:55 AM 59.7 °F - 16.9 °F 19% 30.19 in 10.0 mi South 9.2 mph - N/A   Clear
12:15 PM 61.0 °F - 16.9 °F 18% 30.19 in 10.0 mi SSW 11.5 mph 17.3 mph N/A   Clear
12:35 PM 61.5 °F - 16.2 °F 17% 30.17 in 10.0 mi SSW 10.4 mph - N/A   Clear
12:55 PM 63.3 °F - 15.6 °F 16% 30.17 in 10.0 mi WSW 12.7 mph 18.4 mph N/A   Clear
1:15 PM 63.9 °F - 14.4 °F 15% 30.16 in 10.0 mi SW 13.8 mph 20.7 mph N/A   Clear
1:35 PM 64.0 °F - 15.1 °F 15% 30.16 in 10.0 mi SW 9.2 mph 18.4 mph N/A   Clear
1:55 PM 65.3 °F - 14.5 °F 14% 30.16 in 10.0 mi South 16.1 mph - N/A   Clear
2:15 PM 64.8 °F - 14.2 °F 14% 30.15 in 10.0 mi SSW 10.4 mph 17.3 mph N/A   Clear
2:35 PM 65.1 °F - 14.4 °F 14% 30.14 in 10.0 mi South 10.4 mph 20.7 mph N/A   Clear
2:55 PM 66.6 °F - 14.4 °F 13% 30.14 in 10.0 mi SSW 13.8 mph 19.6 mph N/A   Clear
3:15 PM 67.5 °F - 14.9 °F 13% 30.14 in 10.0 mi SSW 13.8 mph 25.3 mph N/A   Clear
3:35 PM 67.3 °F - 15.6 °F 14% 30.14 in 10.0 mi South 17.3 mph 21.9 mph N/A   Clear
3:55 PM 67.6 °F - 15.1 °F 13% 30.14 in 10.0 mi SSW 11.5 mph - N/A   Clear
4:15 PM 66.9 °F - 14.5 °F 13% 30.14 in 10.0 mi SW 11.5 mph 20.7 mph N/A   Clear
4:35 PM 67.3 °F - 13.6 °F 13% 30.14 in 10.0 mi SW 12.7 mph 17.3 mph N/A   Clear
4:55 PM 67.1 °F - 12.7 °F 12% 30.14 in 10.0 mi SW 16.1 mph - N/A   Clear
5:15 PM 67.1 °F - 12.7 °F 12% 30.14 in 10.0 mi SW 12.7 mph 19.6 mph N/A   Clear
5:35 PM 66.2 °F - 13.5 °F 13% 30.15 in 10.0 mi SSW 12.7 mph 18.4 mph N/A   Clear
5:55 PM 65.7 °F - 14.4 °F 14% 30.16 in 10.0 mi SSW 11.5 mph 18.4 mph N/A   Clear
6:15 PM 64.6 °F - 14.9 °F 15% 30.16 in 10.0 mi SW 8.1 mph - N/A   Clear
6:35 PM 63.0 °F - 15.6 °F 16% 30.17 in 10.0 mi SW 8.1 mph 18.4 mph N/A   Clear
6:55 PM 61.3 °F - 15.8 °F 17% 30.17 in 10.0 mi South 3.5 mph - N/A   Clear
7:15 PM 59.2 °F - 16.3 °F 19% 30.17 in 10.0 mi South 3.5 mph - N/A   Clear
7:35 PM 56.5 °F - 17.1 °F 21% 30.19 in 10.0 mi Calm Calm - N/A   Clear
7:55 PM 52.2 °F - 16.9 °F 25% 30.19 in 10.0 mi Calm Calm - N/A   Clear
8:15 PM 48.4 °F - 17.2 °F 29% 30.20 in 10.0 mi Calm Calm - N/A   Clear
8:35 PM 46.6 °F - 17.2 °F 31% 30.21 in 10.0 mi Calm Calm - N/A   Clear
8:55 PM 49.1 °F - 17.6 °F 29% 30.22 in 10.0 mi NNE 4.6 mph - N/A   Clear
9:15 PM 48.4 °F - 17.6 °F 29% 30.22 in 10.0 mi NNE 4.6 mph - N/A   Clear
9:35 PM 49.1 °F - 17.8 °F 29% 30.23 in 10.0 mi Calm Calm - N/A   Clear
9:55 PM 45.0 °F - 17.6 °F 33% 30.24 in 10.0 mi Calm Calm - N/A   Clear
10:15 PM 45.5 °F 43.2 °F 17.6 °F 33% 30.24 in 10.0 mi NNE 4.6 mph - N/A   Clear
10:35 PM 45.5 °F 42.5 °F 18.0 °F 33% 30.24 in 10.0 mi NNE 5.8 mph - N/A   Clear
10:55 PM 46.4 °F 45.2 °F 18.1 °F 32% 30.25 in 10.0 mi NNE 3.5 mph - N/A   Clear
11:15 PM 45.0 °F 43.5 °F 18.3 °F 35% 30.25 in 10.0 mi NNE 3.5 mph - N/A   Clear
11:35 PM 44.2 °F 41.8 °F 18.9 °F 36% 30.26 in 10.0 mi NNE 4.6 mph - N/A   Clear
11:55 PM 42.8 °F - 19.0 °F 39% 30.26 in 10.0 mi Calm Calm - N/A   Clear